Mosby, MO

8:23 PM CDT on July 24, 2016 (GMT -0500)
Clay County Regional

Weather History for KGPH - December, 2013

Change the Weather History Date:

Saturday, December 28, 2013

  Actual Average (KMKC) Record (KMKC)
Temperature  
Mean Temperature 42 °F -  
Max Temperature 55 °F 38 °F 57 °F (1999)
Min Temperature 30 °F 21 °F 10 °F (2000)
Degree Days  
Heating Degree Days 22    
Moisture  
Dew Point 30 °F    
Average Humidity 70    
Maximum Humidity 100    
Minimum Humidity 33    
Precipitation  
Precipitation 0.00 in - - ()
Sea Level Pressure  
Sea Level Pressure 30.02 in    
Wind  
Wind Speed 4 mph (South)    
Max Wind Speed 16 mph    
Max Gust Speed 22 mph    
Visibility 10 miles    
Events      
Averages and records for this station are not official NWS values.
T = Trace of Precipitation, MM = Missing Value Source: NWS Daily Summary

Daily Weather History Graph

Daily Weather History Graph

Search for Another Location

Airport or City:

Trip Planner

Search our weather history database for the weather conditions in past years. The results will help you decide how hot, cold, wet, or windy it might be!

Date:

Astronomy

Dec. 28, 2013 Rise Set
Actual Time 7:36 AM CST 5:01 PM CST
Civil Twilight 7:06 AM CST 5:31 PM CST
Nautical Twilight 6:32 AM CST 6:05 PM CST
Astronomical Twilight 5:59 AM CST 6:38 PM CST
Moon 3:14 AM CST (12/28) 1:52 PM CST (12/28)
Length of Visible Light 10h 25m
Length of Day
9h 25m
Waning Crescent, 19% of the Moon is Illuminated
Dec 28
Waning Crescent
Jan 1
New
Jan 7
First Quarter
Jan 15
Full
Jan 23
Last Quarter

Hourly Weather History & Observations

Time (CST) Temp. Windchill Dew Point Humidity Pressure Visibility Wind Dir Wind Speed Gust Speed Precip Events Conditions
12:15 AM 32.0 °F - 32.0 °F 100% 30.18 in 10.0 mi Calm Calm - N/A   Clear
12:35 AM 32.0 °F - 30.2 °F 93% 30.18 in 10.0 mi Calm Calm - N/A   Clear
12:55 AM 30.2 °F - 30.2 °F 100% 30.17 in 10.0 mi Calm Calm - N/A   Clear
1:15 AM 30.2 °F 26.7 °F 30.2 °F 100% 30.17 in 10.0 mi SE 3.5 mph - N/A   Clear
1:35 AM 30.2 °F - 30.2 °F 100% 30.17 in 10.0 mi Calm Calm - N/A   Clear
1:55 AM 32.0 °F - 32.0 °F 100% 30.17 in 10.0 mi Calm Calm - N/A   Clear
2:15 AM 32.0 °F - 32.0 °F 100% 30.17 in 10.0 mi Calm Calm - N/A   Clear
2:35 AM 30.2 °F - 30.2 °F 100% 30.17 in 10.0 mi Calm Calm - N/A   Clear
2:55 AM 30.2 °F - 30.2 °F 100% 30.17 in 10.0 mi Calm Calm - N/A   Clear
3:15 AM 30.2 °F 26.7 °F 30.2 °F 100% 30.16 in 10.0 mi SE 3.5 mph - N/A   Clear
3:35 AM 32.0 °F 27.5 °F 30.2 °F 93% 30.15 in 10.0 mi SE 4.6 mph - N/A   Clear
3:55 AM 32.0 °F 27.5 °F 30.2 °F 93% 30.14 in 10.0 mi SE 4.6 mph - N/A   Clear
4:15 AM 32.0 °F 28.7 °F 30.2 °F 93% 30.14 in 10.0 mi ESE 3.5 mph - N/A   Clear
4:35 AM 30.2 °F 26.7 °F 28.4 °F 93% 30.14 in 10.0 mi SE 3.5 mph - N/A   Clear
4:55 AM 30.2 °F 25.4 °F 28.4 °F 93% 30.13 in 10.0 mi SE 4.6 mph - N/A   Clear
5:15 AM 32.0 °F 27.5 °F 30.2 °F 93% 30.12 in 10.0 mi SE 4.6 mph - N/A   Clear
5:35 AM 32.0 °F 28.7 °F 32.0 °F 100% 30.11 in 10.0 mi SSE 3.5 mph - N/A   Clear
5:55 AM 33.8 °F 29.6 °F 30.2 °F 87% 30.11 in 10.0 mi SSE 4.6 mph - N/A   Unknown
6:15 AM 33.8 °F 28.6 °F 30.2 °F 87% 30.11 in 10.0 mi SSE 5.8 mph - N/A   Clear
6:35 AM 33.8 °F 30.8 °F 30.2 °F 87% 30.10 in 10.0 mi SE 3.5 mph - N/A   Clear
6:55 AM 33.8 °F 28.6 °F 30.2 °F 87% 30.10 in 10.0 mi SE 5.8 mph - N/A   Clear
7:15 AM 33.8 °F 29.6 °F 30.2 °F 87% 30.10 in 10.0 mi SE 4.6 mph - N/A   Clear
7:35 AM 33.8 °F 29.6 °F 30.2 °F 87% 30.10 in 10.0 mi SE 4.6 mph - N/A   Clear
7:55 AM 33.8 °F 30.8 °F 30.2 °F 87% 30.10 in 10.0 mi SSE 3.5 mph - N/A   Clear
8:15 AM 35.6 °F 30.7 °F 30.2 °F 81% 30.10 in 10.0 mi South 5.8 mph - N/A   Clear
8:35 AM 33.8 °F 29.6 °F 30.2 °F 87% 30.10 in 10.0 mi SSE 4.6 mph - N/A   Clear
8:55 AM 37.4 °F 32.8 °F 30.2 °F 75% 30.09 in 10.0 mi South 5.8 mph - N/A   Clear
9:15 AM 39.2 °F 34.2 °F 30.2 °F 70% 30.08 in 10.0 mi South 6.9 mph - N/A   Unknown
9:35 AM 39.2 °F 33.0 °F 30.2 °F 70% 30.08 in 10.0 mi South 9.2 mph - N/A   Unknown
9:55 AM 41.0 °F 36.4 °F 30.2 °F 65% 30.07 in 10.0 mi South 6.9 mph - N/A   Unknown
10:15 AM 42.8 °F 37.0 °F 30.2 °F 61% 30.07 in 10.0 mi SSW 10.4 mph 16.1 mph N/A   Clear
10:35 AM 42.8 °F 37.0 °F 30.2 °F 61% 30.07 in 10.0 mi SSW 10.4 mph - N/A   Clear
10:55 AM 44.6 °F 38.4 °F 30.2 °F 57% 30.06 in 10.0 mi SSW 12.7 mph - N/A   Clear
11:15 AM 46.4 °F 41.5 °F 30.2 °F 53% 30.05 in 10.0 mi SSW 10.4 mph 16.1 mph N/A   Clear
11:35 AM 48.2 °F - 32.0 °F 54% 30.05 in 10.0 mi SSW 10.4 mph 16.1 mph N/A   Clear
11:55 AM 50.0 °F - 30.2 °F 47% 30.03 in 10.0 mi SSW 9.2 mph - N/A   Clear
12:15 PM 51.8 °F - 30.2 °F 44% 30.01 in 10.0 mi South 12.7 mph - N/A   Clear
12:35 PM 51.8 °F - 30.2 °F 44% 30.00 in 10.0 mi SSW 9.2 mph 18.4 mph N/A   Clear
12:55 PM 53.6 °F - 30.2 °F 41% 29.98 in 10.0 mi SSW 16.1 mph 21.9 mph N/A   Clear
1:15 PM 53.6 °F - 30.2 °F 41% 29.97 in 10.0 mi South 11.5 mph - N/A   Clear
1:35 PM 53.6 °F - 30.2 °F 41% 29.96 in 10.0 mi SSW 10.4 mph 20.7 mph N/A   Clear
1:55 PM 53.6 °F - 30.2 °F 41% 29.94 in 10.0 mi SSW 10.4 mph 17.3 mph N/A   Clear
2:15 PM 55.4 °F - 28.4 °F 36% 29.93 in 10.0 mi South 12.7 mph 17.3 mph N/A   Clear
2:35 PM 55.4 °F - 26.6 °F 33% 29.92 in 10.0 mi SSW 15.0 mph 21.9 mph N/A   Unknown
2:55 PM 55.4 °F - 28.4 °F 36% 29.92 in 10.0 mi SSW 11.5 mph - N/A   Clear
3:15 PM 55.4 °F - 28.4 °F 36% 29.91 in 10.0 mi South 11.5 mph - N/A   Clear
3:35 PM 55.4 °F - 26.6 °F 33% 29.90 in 10.0 mi South 8.1 mph - N/A   Clear
3:55 PM 53.6 °F - 24.8 °F 33% 29.90 in 10.0 mi South 13.8 mph 19.6 mph N/A   Clear
4:15 PM 53.6 °F - 24.8 °F 33% 29.90 in 10.0 mi South 12.7 mph - N/A   Clear
4:35 PM 53.6 °F - 24.8 °F 33% 29.90 in 10.0 mi South 6.9 mph - N/A   Clear
4:55 PM 51.8 °F - 26.6 °F 38% 29.90 in 10.0 mi SSE 5.8 mph - N/A   Clear
5:15 PM 50.0 °F - 26.6 °F 40% 29.90 in 10.0 mi SSE 6.9 mph - N/A   Clear
5:35 PM 50.0 °F - 30.2 °F 47% 29.90 in 10.0 mi SSE 6.9 mph - N/A   Clear
5:55 PM 48.2 °F - 30.2 °F 50% 29.89 in 10.0 mi SSE 6.9 mph - N/A   Clear
6:15 PM 46.4 °F 44.3 °F 30.2 °F 53% 29.89 in 10.0 mi SSE 4.6 mph - N/A   Clear
6:35 PM 46.4 °F 43.5 °F 30.2 °F 53% 29.89 in 10.0 mi SSE 5.8 mph - N/A   Clear
6:55 PM 46.4 °F 43.5 °F 30.2 °F 53% 29.89 in 10.0 mi South 5.8 mph - N/A   Clear
7:15 PM 44.6 °F 41.4 °F 30.2 °F 57% 29.89 in 10.0 mi South 5.8 mph - N/A   Clear
7:35 PM 44.6 °F 42.2 °F 30.2 °F 57% 29.90 in 10.0 mi SSE 4.6 mph - N/A   Clear
7:55 PM 42.8 °F 41.1 °F 30.2 °F 61% 29.90 in 10.0 mi South 3.5 mph - N/A   Clear
8:15 PM 42.8 °F 40.1 °F 32.0 °F 66% 29.89 in 10.0 mi SSE 4.6 mph - N/A   Clear
8:35 PM 42.8 °F - 32.0 °F 66% 29.90 in 10.0 mi Calm Calm - N/A   Clear
8:55 PM 42.8 °F 40.1 °F 32.0 °F 66% 29.90 in 10.0 mi South 4.6 mph - N/A   Clear
9:15 PM 41.0 °F - 32.0 °F 70% 29.90 in 10.0 mi Calm Calm - N/A   Clear
9:35 PM 35.6 °F 32.8 °F 30.2 °F 81% 29.91 in 10.0 mi North 3.5 mph - N/A   Clear
9:55 PM 35.6 °F - 30.2 °F 81% 29.90 in 10.0 mi Calm Calm - N/A   Clear
10:15 PM 35.6 °F - 30.2 °F 81% 29.90 in 10.0 mi Calm Calm - N/A   Clear
10:35 PM 33.8 °F - 30.2 °F 87% 29.90 in 10.0 mi Calm Calm - N/A   Clear
10:55 PM 32.0 °F - 28.4 °F 87% 29.90 in 10.0 mi Calm Calm - N/A   Clear
11:15 PM 32.0 °F 24.2 °F 30.2 °F 93% 29.92 in 10.0 mi WNW 9.2 mph - N/A   Clear
11:35 PM 37.4 °F 32.8 °F 32.0 °F 81% 29.92 in 10.0 mi WNW 5.8 mph - N/A   Clear
11:55 PM 39.2 °F 32.5 °F 32.0 °F 75% 29.93 in 10.0 mi NW 10.4 mph - N/A   Clear